{"data":{"norad_id":52615,"epoch":"2026-05-24T15:40:14.376288Z","epoch_age_seconds":108242,"freshness":"FRESH","line1":"1 52615U 22052T   26144.65294417 -.00000392  00000+0 -65111-5 0  9999","line2":"2 52615  53.2144 303.1059 0001477 100.1456 259.9703 15.08842598222244","mean_motion":15.08842598,"eccentricity":0.0001477,"inclination_deg":53.2144,"raan_deg":303.1059,"arg_perigee_deg":100.1456,"mean_anomaly_deg":259.9703,"bstar":-6.5111e-6,"rev_number":22224,"period_min":95.437390348652,"perigee_km":538.71367816829,"apogee_km":540.7572176894,"semimajor_km":6917.8724479288,"source":"CELESTRAK","updated_at":"2026-05-25T13:38:17.200347Z"}}